Weather History for Iron Mountain, MI

Change the Weather History Date:

Wednesday, February 15, 2012

  Actual Average Record
Temperature  
Mean Temperature 34 °F -  
Max Temperature 39 °F 28 °F 49 °F (1981)
Min Temperature 30 °F 7 °F -17 °F (1974)
Degree Days  
Heating Degree Days 30    
Moisture  
Dew Point 26 °F    
Average Humidity 79    
Maximum Humidity 88    
Minimum Humidity 62    
Precipitation  
Precipitation 0.00 in - - ()
Sea Level Pressure  
Sea Level Pressure 29.94 in    
Wind  
Wind Speed 4 mph (South)    
Max Wind Speed 10 mph    
Max Gust Speed -    
Visibility 7 miles    
Events Snow    
Averages and records for this station are not official NWS values.
T = Trace of Precipitation, MM = Missing Value Source: NWS Daily Summary

Daily Weather History Graph

Daily Weather History Graph

Search for Another Location

Airport:

Trip Planner

Search our weather history database for the weather conditions in past years. The results will help you decide how hot, cold, wet, or windy it might be!

Date:

Astronomy

Feb. 15, 2012 Rise Set
Actual Time 6:55 AM CST 5:18 PM CST
Civil Twilight 6:24 AM CST 5:49 PM CST
Nautical Twilight 5:50 AM CST 6:23 PM CST
Astronomical Twilight 5:15 AM CST 6:58 PM CST
Moon 1:58 AM CST (2/15) 11:03 AM CST (2/15)
Length of Visible Light 11h 24m
Length of Day
10h 22m
Last Quarter, 38% of the Moon is Illuminated
Feb 15
Last Quarter
Feb 21
New
Feb 29
First Quarter
Mar 8
Full
Mar 14
Last Quarter

Hourly Weather History & Observations

Time (CST) Temp. Windchill Dew Point Humidity Pressure Visibility Wind Dir Wind Speed Gust Speed Precip Events Conditions
1:54 AM 30.0 °F 25.2 °F 23.0 °F 75% 29.89 in 10.0 mi SSE 4.6 mph - N/A   Overcast
2:54 AM 30.0 °F 25.2 °F 24.1 °F 79% 29.89 in 10.0 mi SSE 4.6 mph - N/A   Overcast
3:54 AM 30.0 °F 24.1 °F 24.1 °F 79% 29.90 in 10.0 mi SSE 5.8 mph - N/A   Overcast
4:54 AM 30.0 °F 25.2 °F 25.0 °F 82% 29.91 in 9.0 mi SE 4.6 mph - N/A   Overcast
5:54 AM 30.0 °F 24.1 °F 25.0 °F 82% 29.92 in 9.0 mi South 5.8 mph - N/A   Overcast
6:17 AM 30.2 °F 25.4 °F 24.8 °F 80% 29.87 in 9.0 mi SSE 4.6 mph - N/A   Overcast
6:54 AM 30.0 °F 23.2 °F 26.1 °F 85% 29.94 in 8.0 mi South 6.9 mph - N/A   Overcast
7:26 AM 30.2 °F 25.4 °F 26.6 °F 86% 29.89 in 1.8 mi SSE 4.6 mph - 0.00 in Snow Light Snow
7:40 AM 30.2 °F 25.4 °F 26.6 °F 86% 29.89 in 3.0 mi South 4.6 mph - 0.00 in Snow Light Snow
7:49 AM 30.2 °F 25.4 °F 26.6 °F 86% 29.90 in 2.0 mi SSE 4.6 mph - 0.00 in Snow Light Snow
7:54 AM 30.0 °F 25.2 °F 27.0 °F 88% 29.95 in 2.5 mi South 4.6 mph - 0.00 in Snow Light Snow
8:03 AM 30.2 °F 25.4 °F 26.6 °F 86% 29.90 in 4.0 mi South 4.6 mph - 0.00 in   Overcast
8:54 AM 30.0 °F 24.1 °F 27.0 °F 88% 29.96 in 4.0 mi South 5.8 mph - 0.00 in   Overcast
9:54 AM 30.9 °F 27.5 °F 27.0 °F 85% 29.97 in 4.0 mi SSW 3.5 mph - N/A   Overcast
10:54 AM 33.1 °F 26.9 °F 28.0 °F 82% 29.97 in 5.0 mi SW 6.9 mph - N/A   Haze
11:54 AM 34.0 °F 28.0 °F 27.0 °F 75% 29.97 in 6.0 mi West 6.9 mph - N/A   Haze
12:54 PM 36.0 °F 31.1 °F 28.0 °F 73% 29.97 in 7.0 mi West 5.8 mph - N/A   Overcast
1:54 PM 37.0 °F 32.4 °F 27.0 °F 67% 29.97 in 8.0 mi WNW 5.8 mph - N/A   Mostly Cloudy
2:16 PM 37.4 °F 33.8 °F 28.4 °F 70% 29.92 in 9.0 mi SW 4.6 mph - N/A   Scattered Clouds
2:54 PM 39.0 °F - 27.0 °F 62% 29.97 in 9.0 mi Calm Calm - N/A   Clear
3:54 PM 37.9 °F 33.5 °F 27.0 °F 65% 29.98 in 10.0 mi South 5.8 mph - N/A   Partly Cloudy
4:54 PM 36.0 °F - 27.0 °F 70% 29.98 in 10.0 mi Calm Calm - N/A   Partly Cloudy
5:54 PM 33.1 °F - 26.1 °F 75% 29.99 in 10.0 mi Calm Calm - N/A   Scattered Clouds
6:54 PM 30.9 °F - 26.1 °F 82% 30.00 in 9.0 mi Calm Calm - N/A   Overcast
7:54 PM 33.1 °F 28.7 °F 27.0 °F 78% 29.98 in 8.0 mi SSE 4.6 mph - N/A   Overcast
8:54 PM 34.0 °F 26.0 °F 28.0 °F 79% 29.97 in 5.0 mi SSE 10.4 mph - N/A   Haze
9:54 PM 34.0 °F - 28.0 °F 79% 29.99 in 5.0 mi Calm Calm - N/A   Haze
10:54 PM 30.9 °F - 27.0 °F 85% 29.98 in 4.0 mi Calm Calm - N/A   Overcast
11:54 PM 30.0 °F - 27.0 °F 88% 29.97 in 4.0 mi Calm Calm - N/A   Overcast